�������l�o���
Date,Time,MP-1(��Sv/h),MP-2(��Sv/h),MP-3(��Sv/h),MP-4(��Sv/h),MP-5(��Sv/h),MP-6(��Sv/h),MP-7(��Sv/h),MP-8(��Sv/h),����,����(m/s),���J
2021/05/10,00:00,0.635,0.948,0.593,1.159,0.824,0.375,0.654,0.613,���k��,7.8,��
2021/05/10,00:10,0.634,0.947,0.592,1.161,0.824,0.377,0.656,0.611,���k��,8.4,��
2021/05/10,00:20,0.634,0.945,0.594,1.160,0.824,0.377,0.655,0.612,���k��,8.3,��
2021/05/10,00:30,0.635,0.945,0.594,1.160,0.824,0.378,0.655,0.613,���k��,6.8,��
2021/05/10,00:40,0.634,0.945,0.592,1.159,0.825,0.377,0.656,0.614,�k��,7.7,��
2021/05/10,00:50,0.634,0.946,0.593,1.161,0.825,0.376,0.654,0.613,���k��,5.5,��
2021/05/10,01:00,0.633,0.946,0.594,1.160,0.823,0.377,0.656,0.614,�k��,9.8,��
2021/05/10,01:10,0.634,0.946,0.594,1.161,0.826,0.376,0.653,0.613,�k��,7.2,��
2021/05/10,01:20,0.636,0.946,0.595,1.163,0.824,0.377,0.654,0.613,�k��,6.1,��
2021/05/10,01:30,0.635,0.944,0.594,1.162,0.825,0.378,0.655,0.614,�k��,5.8,��
2021/05/10,01:40,0.634,0.945,0.594,1.162,0.825,0.378,0.653,0.613,�k��,9.0,��
2021/05/10,01:50,0.636,0.948,0.593,1.162,0.822,0.377,0.654,0.613,�k��,8.5,��
2021/05/10,02:00,0.634,0.947,0.592,1.162,0.825,0.378,0.656,0.613,�k��,5.9,��
2021/05/10,02:10,0.634,0.944,0.594,1.162,0.824,0.376,0.655,0.614,��,6.1,��
2021/05/10,02:20,0.635,0.947,0.592,1.159,0.824,0.377,0.655,0.613,��,5.2,��
2021/05/10,02:30,0.634,0.945,0.592,1.160,0.824,0.377,0.656,0.612,��,5.0,��
2021/05/10,02:40,0.633,0.944,0.593,1.161,0.826,0.376,0.656,0.613,��,6.6,��
2021/05/10,02:50,0.634,0.944,0.592,1.161,0.825,0.376,0.654,0.613,���쐼,7.0,��
2021/05/10,03:00,0.635,0.944,0.593,1.161,0.825,0.376,0.655,0.613,��,4.5,��
2021/05/10,03:10,0.634,0.945,0.594,1.162,0.825,0.376,0.655,0.613,��,4.5,��
2021/05/10,03:20,0.634,0.946,0.594,1.162,0.824,0.375,0.656,0.614,���k��,5.6,��
2021/05/10,03:30,0.633,0.943,0.593,1.162,0.823,0.375,0.658,0.614,��,4.7,��
2021/05/10,03:40,0.633,0.947,0.593,1.161,0.826,0.376,0.656,0.613,�k��,4.0,��
2021/05/10,03:50,0.634,0.947,0.593,1.159,0.824,0.376,0.655,0.614,���k��,2.3,��
2021/05/10,04:00,0.634,0.943,0.596,1.161,0.822,0.377,0.657,0.612,�k�k��,3.5,��
2021/05/10,04:10,0.634,0.944,0.593,1.162,0.823,0.376,0.657,0.614,���k��,0.9,��
2021/05/10,04:20,0.635,0.943,0.592,1.162,0.825,0.377,0.656,0.612,�k��,1.1,��
2021/05/10,04:30,0.634,0.943,0.595,1.160,0.824,0.375,0.657,0.612,�k�k��,3.0,��
2021/05/10,04:40,0.634,0.947,0.592,1.159,0.824,0.375,0.657,0.614,�k��,1.5,��
2021/05/10,04:50,0.634,0.945,0.593,1.160,0.825,0.375,0.656,0.612,�k��,1.2,��
2021/05/10,05:00,0.633,0.946,0.593,1.163,0.824,0.375,0.658,0.614,�k��,3.0,��
2021/05/10,05:10,0.634,0.945,0.592,1.163,0.825,0.375,0.655,0.614,���k��,5.4,��
2021/05/10,05:20,0.635,0.947,0.593,1.162,0.825,0.376,0.656,0.614,���k��,3.5,��
2021/05/10,05:30,0.635,0.945,0.594,1.161,0.825,0.375,0.657,0.612,�k��,3.6,��
2021/05/10,05:40,0.634,0.945,0.594,1.165,0.823,0.377,0.657,0.612,���k��,2.9,��
2021/05/10,05:50,0.636,0.946,0.593,1.159,0.824,0.374,0.655,0.613,�k,1.9,��
2021/05/10,06:00,0.635,0.945,0.592,1.163,0.826,0.377,0.657,0.613,��,3.5,��
2021/05/10,06:10,0.636,0.947,0.592,1.162,0.824,0.376,0.658,0.615,���k��,5.4,��
2021/05/10,06:20,0.633,0.945,0.593,1.160,0.825,0.375,0.658,0.612,���k��,6.0,��
2021/05/10,06:30,0.635,0.944,0.594,1.161,0.826,0.376,0.657,0.613,��,2.6,��
2021/05/10,06:40,0.637,0.945,0.593,1.163,0.823,0.374,0.657,0.613,��,3.3,��
2021/05/10,06:50,0.637,0.945,0.595,1.162,0.823,0.376,0.659,0.612,���k��,4.7,��
2021/05/10,07:00,0.634,0.945,0.594,1.165,0.823,0.372,0.657,0.613,���k��,1.9,��
2021/05/10,07:10,0.634,0.947,0.594,1.164,0.824,0.373,0.657,0.613,�k��,4.0,��
2021/05/10,07:20,0.634,0.946,0.594,1.164,0.823,0.376,0.657,0.613,�k��,2.9,��
2021/05/10,07:30,0.635,0.945,0.594,1.162,0.824,0.374,0.656,0.613,�k�k��,3.3,��
2021/05/10,07:40,0.635,0.945,0.595,1.164,0.823,0.374,0.655,0.613,���k��,5.3,��
2021/05/10,07:50,0.635,0.944,0.594,1.163,0.825,0.374,0.656,0.613,���k��,3.8,��
2021/05/10,08:00,0.634,0.944,0.593,1.166,0.823,0.374,0.657,0.611,���k��,5.1,��
2021/05/10,08:10,0.634,0.944,0.594,1.163,0.823,0.374,0.656,0.612,���k��,3.7,��
2021/05/10,08:20,0.634,0.942,0.593,1.165,0.824,0.375,0.655,0.610,�쐼,1.9,��
2021/05/10,08:30,0.633,0.941,0.593,1.163,0.824,0.376,0.657,0.610,���k��,3.9,��
2021/05/10,08:40,0.632,0.943,0.592,1.166,0.822,0.374,0.653,0.610,���k��,5.5,��
2021/05/10,08:50,0.635,0.943,0.593,1.164,0.821,0.375,0.655,0.612,��,3.2,��
2021/05/10,09:00,0.634,0.943,0.590,1.164,0.823,0.374,0.658,0.612,���쐼,0.9,��
2021/05/10,09:10,0.633,0.944,0.592,1.165,0.824,0.375,0.654,0.612,���k��,0.8,��
2021/05/10,09:20,0.634,0.944,0.591,1.161,0.825,0.375,0.656,0.610,��,7.7,��
2021/05/10,09:30,0.635,0.942,0.593,1.167,0.824,0.374,0.655,0.612,���k��,4.0,��
2021/05/10,09:40,0.636,0.944,0.592,1.163,0.825,0.375,0.656,0.612,���k��,9.8,��
2021/05/10,09:50,0.635,0.944,0.593,1.164,0.828,0.374,0.657,0.613,���k��,8.3,��
2021/05/10,10:00,0.638,0.941,0.593,1.164,0.825,0.375,0.657,0.609,��,10.5,��
2021/05/10,10:10,0.637,0.944,0.594,1.165,0.825,0.375,0.655,0.611,���k��,11.3,��
2021/05/10,10:20,0.637,0.945,0.593,1.163,0.825,0.374,0.657,0.610,��,10.2,��
2021/05/10,10:30,0.636,0.943,0.593,1.165,0.825,0.375,0.658,0.611,��,12.4,��
2021/05/10,10:40,0.637,0.948,0.593,1.166,0.826,0.376,0.655,0.610,��,10.9,��
2021/05/10,10:50,0.637,0.945,0.593,1.168,0.829,0.375,0.658,0.611,��,9.0,��
2021/05/10,11:00,0.637,0.946,0.595,1.165,0.826,0.377,0.658,0.611,��,11.4,��
2021/05/10,11:10,0.637,0.944,0.594,1.163,0.825,0.375,0.656,0.613,���쐼,9.6,��
2021/05/10,11:20,0.637,0.944,0.592,1.163,0.828,0.377,0.659,0.612,��,8.7,��
2021/05/10,11:30,0.638,0.945,0.593,1.165,0.829,0.375,0.658,0.612,��,12.0,��
2021/05/10,11:40,0.638,0.948,0.594,1.164,0.830,0.375,0.658,0.611,���쐼,8.5,��
2021/05/10,11:50,0.637,0.947,0.594,1.165,0.828,0.377,0.655,0.613,��,7.9,��
2021/05/10,12:00,0.639,0.948,0.595,1.164,0.829,0.376,0.656,0.611,��,10.0,��
2021/05/10,12:10,0.638,0.950,0.596,1.166,0.827,0.376,0.657,0.610,���k��,9.3,��
2021/05/10,12:20,0.637,0.951,0.596,1.166,0.829,0.377,0.660,0.612,��,9.9,��
2021/05/10,12:30,0.636,0.946,0.597,1.162,0.829,0.378,0.658,0.614,��,7.1,��
2021/05/10,12:40,0.636,0.948,0.594,1.166,0.829,0.377,0.658,0.614,��,9.7,��
2021/05/10,12:50,0.638,0.948,0.596,1.164,0.828,0.377,0.657,0.615,��,8.5,��
2021/05/10,13:00,0.638,0.949,0.594,1.166,0.830,0.377,0.658,0.613,��,7.7,��
2021/05/10,13:10,0.638,0.950,0.597,1.167,0.830,0.377,0.657,0.612,��,10.9,��
2021/05/10,13:20,0.639,0.949,0.595,1.166,0.830,0.377,0.657,0.612,��,11.7,��
2021/05/10,13:30,0.639,0.946,0.594,1.166,0.828,0.377,0.658,0.613,��,9.8,��
2021/05/10,13:40,0.639,0.946,0.596,1.166,0.828,0.378,0.658,0.613,��,8.0,��
2021/05/10,13:50,0.639,0.947,0.597,1.165,0.831,0.377,0.660,0.613,��,10.9,��
2021/05/10,14:00,0.639,0.945,0.595,1.167,0.831,0.377,0.657,0.612,��,11.1,��
2021/05/10,14:10,0.640,0.948,0.595,1.169,0.833,0.378,0.659,0.614,��,9.9,��
2021/05/10,14:20,0.639,0.948,0.596,1.168,0.832,0.377,0.658,0.611,���k��,9.1,��
2021/05/10,14:30,0.640,0.948,0.594,1.166,0.831,0.377,0.658,0.613,��,9.3,��
2021/05/10,14:40,0.639,0.948,0.596,1.168,0.832,0.377,0.659,0.612,��,7.4,��
2021/05/10,14:50,0.637,0.950,0.596,1.168,0.832,0.376,0.660,0.613,���쐼,5.8,��
2021/05/10,15:00,0.638,0.950,0.595,1.170,0.833,0.377,0.658,0.612,��,8.2,��
2021/05/10,15:10,0.642,0.948,0.595,1.168,0.832,0.377,0.658,0.613,��,8.6,��
2021/05/10,15:20,0.642,0.950,0.595,1.167,0.831,0.377,0.658,0.614,��,11.0,��
2021/05/10,15:30,0.642,0.952,0.597,1.170,0.832,0.377,0.658,0.613,��,8.3,��
2021/05/10,15:40,0.639,0.951,0.595,1.170,0.832,0.377,0.658,0.612,��,8.4,��
2021/05/10,15:50,0.637,0.952,0.594,1.168,0.831,0.376,0.660,0.613,���쐼,8.7,��
2021/05/10,16:00,0.637,0.951,0.595,1.169,0.828,0.377,0.658,0.613,���쐼,9.3,��
2021/05/10,16:10,0.637,0.954,0.594,1.168,0.830,0.376,0.658,0.612,��,9.0,��
2021/05/10,16:20,0.637,0.952,0.594,1.169,0.829,0.377,0.657,0.610,��,8.7,��
2021/05/10,16:30,0.637,0.952,0.595,1.170,0.830,0.375,0.659,0.612,��,10.8,��
2021/05/10,16:40,0.637,0.953,0.594,1.169,0.829,0.377,0.657,0.612,��,9.1,��
2021/05/10,16:50,0.642,0.954,0.596,1.170,0.830,0.377,0.659,0.614,��,13.3,��
2021/05/10,17:00,0.646,0.952,0.594,1.169,0.832,0.377,0.658,0.613,��,11.6,��
2021/05/10,17:10,0.643,0.951,0.594,1.169,0.832,0.375,0.657,0.613,��,8.6,��
2021/05/10,17:20,0.642,0.951,0.596,1.169,0.830,0.376,0.656,0.612,��,8.6,��
2021/05/10,17:30,0.642,0.952,0.596,1.171,0.831,0.376,0.657,0.612,���k��,8.2,��
2021/05/10,17:40,0.640,0.955,0.594,1.173,0.831,0.376,0.656,0.613,��,5.8,��
2021/05/10,17:50,0.642,0.956,0.594,1.175,0.831,0.377,0.656,0.611,���k��,7.5,��
2021/05/10,18:00,0.640,0.954,0.594,1.175,0.830,0.375,0.657,0.612,���k��,5.7,��
2021/05/10,18:10,0.642,0.955,0.595,1.173,0.830,0.377,0.656,0.613,���k��,5.0,��
2021/05/10,18:20,0.643,0.957,0.596,1.177,0.831,0.377,0.656,0.614,���k��,5.4,��
2021/05/10,18:30,0.646,0.955,0.596,1.175,0.833,0.376,0.657,0.614,���k��,8.4,��
2021/05/10,18:40,0.644,0.954,0.596,1.174,0.831,0.376,0.658,0.615,��,9.0,��
2021/05/10,18:50,0.646,0.954,0.596,1.172,0.832,0.377,0.656,0.615,��,7.3,��
2021/05/10,19:00,0.646,0.956,0.598,1.174,0.832,0.375,0.657,0.615,���k��,8.0,��
2021/05/10,19:10,0.646,0.955,0.596,1.173,0.833,0.376,0.657,0.611,��,6.2,��
2021/05/10,19:20,0.646,0.956,0.597,1.175,0.832,0.377,0.657,0.612,���k��,6.4,��
2021/05/10,19:30,0.646,0.955,0.596,1.173,0.833,0.377,0.657,0.613,���k��,5.3,��
2021/05/10,19:40,0.649,0.954,0.597,1.177,0.834,0.376,0.657,0.613,��,3.2,��
2021/05/10,19:50,0.651,0.955,0.596,1.175,0.833,0.376,0.657,0.614,���쐼,3.6,��
2021/05/10,20:00,0.648,0.955,0.598,1.174,0.833,0.376,0.657,0.613,��,6.0,��
2021/05/10,20:10,0.645,0.955,0.596,1.174,0.835,0.377,0.656,0.614,��,6.8,��
2021/05/10,20:20,0.644,0.953,0.598,1.172,0.836,0.377,0.658,0.615,��,4.3,��
2021/05/10,20:30,0.642,0.956,0.597,1.173,0.834,0.376,0.657,0.614,���k��,4.7,��
2021/05/10,20:40,0.642,0.954,0.597,1.173,0.832,0.376,0.659,0.615,���k��,6.1,��
2021/05/10,20:50,0.646,0.955,0.597,1.173,0.834,0.376,0.658,0.614,���k��,6.5,��
2021/05/10,21:00,0.645,0.956,0.596,1.172,0.834,0.374,0.658,0.613,���k��,4.8,��
2021/05/10,21:10,0.644,0.954,0.597,1.174,0.835,0.377,0.656,0.615,���k��,6.2,��
2021/05/10,21:20,0.644,0.952,0.597,1.174,0.832,0.376,0.657,0.614,���k��,5.2,��
2021/05/10,21:30,0.643,0.954,0.596,1.176,0.835,0.378,0.656,0.615,���k��,5.1,��
2021/05/10,21:40,0.645,0.956,0.597,1.174,0.834,0.376,0.657,0.614,���k��,5.9,��
2021/05/10,21:50,0.644,0.953,0.596,1.174,0.833,0.376,0.658,0.614,���k��,6.1,��
2021/05/10,22:00,0.645,0.954,0.599,1.173,0.832,0.376,0.657,0.616,���k��,6.4,��
2021/05/10,22:10,0.645,0.953,0.598,1.175,0.834,0.376,0.658,0.613,���k��,5.3,��
2021/05/10,22:20,0.646,0.952,0.597,1.172,0.833,0.378,0.657,0.614,���k��,4.4,��
2021/05/10,22:30,0.644,0.956,0.599,1.174,0.833,0.378,0.657,0.614,���k��,4.4,��
2021/05/10,22:40,0.644,0.954,0.596,1.173,0.833,0.377,0.658,0.614,���k��,4.9,��
2021/05/10,22:50,0.643,0.955,0.596,1.173,0.832,0.377,0.658,0.614,���k��,6.0,��
2021/05/10,23:00,0.647,0.954,0.596,1.173,0.833,0.377,0.657,0.614,���k��,6.3,��
2021/05/10,23:10,0.643,0.956,0.597,1.174,0.833,0.376,0.658,0.615,���k��,6.2,��
2021/05/10,23:20,0.646,0.956,0.597,1.174,0.834,0.376,0.656,0.614,��,5.9,��
2021/05/10,23:30,0.644,0.954,0.597,1.174,0.832,0.375,0.657,0.614,���k��,5.0,��
2021/05/10,23:40,0.645,0.954,0.596,1.173,0.833,0.377,0.657,0.614,���k��,4.1,��
2021/05/10,23:50,0.645,0.954,0.596,1.174,0.833,0.376,0.658,0.614,���k��,5.2,��
